{"data":{"norad_id":53893,"intl_designator":"2022-119H","name":"STARLINK-5052","alt_names":[],"object_type":"PAYLOAD","status":"ACTIVE","operator":null,"country":"US","launch_date":"2022-09-24","launch_site_code":"AFETR","launch_vehicle":null,"mission":null,"orbit_class":"UNKNOWN","rcs_meters":null,"size_class":null,"mass_kg":null,"dimensions":null,"purposes":["comms"],"wikipedia_slug":null,"has_3d_model":false,"image_url":null,"decayed_at":null,"tle_current":{"epoch":"2026-05-24T22:13:45.890112Z","epoch_age_seconds":74705,"freshness":"FRESH","line1":"1 53893U 22119H   26144.92622558  .00001035  00000+0  83093-4 0  9994","line2":"2 53893  53.2133 341.8844 0001262  82.9180 277.1955 15.08841426203198","mean_motion":15.08841426,"eccentricity":0.0001262,"inclination_deg":53.2133,"raan_deg":341.8844,"arg_perigee_deg":82.918,"mean_anomaly_deg":277.1955,"bstar":8.3093e-5,"rev_number":20319,"period_min":95.437464480114,"perigee_km":538.865994301,"apogee_km":540.61206621104,"semimajor_km":6917.876030256,"source":"CELESTRAK","updated_at":"2026-05-25T13:38:17.582988Z"}}}